Regional Weather Roundup
Issued by NWS

Home | Current Version | Previous Version | Text Only | Print | Product List | Glossary On
Versions: 1 2 3 4 5 6 7 8 9 10 11 12 13 14 15 16 17 18 19 20 21 22 23 24 25 26 27 28 29 30 31 32 33 34 35 36 37 38 39 40 41 42 43 44 45 46 47 48 49 50
000
ASUS43 KMKX 270820
RWRWI

WISCONSIN REGIONAL WEATHER ROUNDUP
NATIONAL WEATHER SERVICE MILWAUKEE/SULLIVAN WI
200 AM CST TUE JAN 27 2015

NOTE: "FAIR" INDICATES FEW OR NO CLOUDS BELOW 12,000 FEET WITH NO
SIGNIFICANT WEATHER AND/OR OBSTRUCTIONS TO VISIBILITY.

WIZ001-002-006>008-014>016-023>028-270900-
NORTHWEST WISCONSIN

CITY           SKY/WX    TMP DP  RH WIND       PRES   REMARKS
SUPERIOR ARPT  CLOUDY    29  24  81 N6        30.05R WCI  23
ASHLAND        CLOUDY    26  23  88 NW3       30.03R
HAYWARD        CLOUDY    27  23  85 N5        30.01R WCI  22
SIREN          CLOUDY    30  23  75 N7        30.04R WCI  23
CUMBERLAND     CLOUDY    28  23  80 N6        30.01R WCI  22
RICE LAKE      CLOUDY    29  24  82 N7        30.03R WCI  22
CHETEK         CLOUDY    28  25  88 N6        30.02R WCI  22
LADYSMITH      CLOUDY    26  24  93 N3        30.02R
EAU CLAIRE     CLOUDY    28  23  81 N6        30.02R WCI  22
MENOMONIE      CLOUDY    32  28  86 N9        30.02R WCI  24
NEW RICHMOND   CLOUDY    32  27  80 N6        30.03R WCI  26
OSCEOLA        CLOUDY    33  26  76 N6        30.06R WCI  27
$$

WIZ003>005-009-010-017-018-270900-
NORTH CENTRAL WISCONSIN

CITY           SKY/WX    TMP DP  RH WIND       PRES   REMARKS
MANITOWISH WTR CLOUDY    19  17  95 CALM      29.97R
ARBOR VITAE    CLOUDY    22  19  90 CALM      29.96R
WOODRUFF       CLOUDY    22  19  90 CALM      29.96R
RHINELANDER    CLOUDY    20  17  88 CALM      29.96R
EAGLE RIVER    CLOUDY    20  16  85 CALM      29.96R
LAND O LAKES   CLOUDY    20  18  92 SE3       29.97R
PHILLIPS       CLOUDY    20  19  95 CALM      29.98R
TOMAHAWK       CLOUDY    19  18  93 CALM      29.97R
MEDFORD        CLOUDY    20  19  96 N3        29.97R FOG
MERRILL        CLOUDY    21  19  95 CALM      29.98R
$$

WIZ029-030-035-036-043>047-270900-
CENTRAL WISCONSIN

CITY           SKY/WX    TMP DP  RH WIND       PRES   REMARKS
WAUSAU         CLOUDY    22  19  89 N3        29.97R
MOSINEE        CLOUDY    21  21 100 N5        29.99R WCI  15
MARSHFIELD     CLOUDY    23  20  88 N6        29.98R FOG     WCI  16
STEVENS POINT  CLOUDY    20  19  95 CALM      29.99R
WAUPACA        CLOUDY    25  23  89 CALM      30.00R FOG
WAUTOMA        CLOUDY    24  23  96 CALM      29.99R
WISC RAPIDS    CLOUDY    23  19  85 N5        30.00R WCI  17
CAMP DOUGLAS   CLOUDY    23  23 100 NW5       30.00R WCI  17
$$

WIZ011>013-019>022-031-037>040-048>050-270900-
NORTHEAST WISCONSIN

CITY           SKY/WX    TMP DP  RH WIND       PRES   REMARKS
ANTIGO         CLOUDY    20  19  96 E6        29.97R WCI  13
SHAWANO        CLOUDY    25  22  85 E5        30.01R WCI  20
OCONTO         CLOUDY    22  21  96 CALM      30.03R
STURGEON BAY   CLOUDY    21  16  79 E3        30.05R
GREEN BAY      CLOUDY    24  20  84 E7        30.01R WCI  16
MANITOWOC      MIX PCPN  25  21  86 E10       30.02R WCI  15
APPLETON       CLOUDY    27  23  86 E5        29.99R WCI  21
CLINTONVILLE   CLOUDY    25  23  93 E5        30.00R WCI  19
OSHKOSH        CLOUDY    24  21  88 N3        29.99R
$$

WIZ032>034-041-042-053>061-270900-
SOUTHWEST WISCONSIN

CITY           SKY/WX    TMP DP  RH WIND       PRES   REMARKS
LA CROSSE      CLOUDY    31  26  82 N5        30.01R WCI  26
SPARTA         CLOUDY    27  27  98 N7        30.01R FOG     WCI  20
VIROQUA        CLOUDY    29  29 100 N13       29.96R WCI  18
BOSCOBEL       CLOUDY    28  25  88 CALM      29.99R FOG
PRAIRIE DU CHI CLOUDY    31  28  88 CALM      29.99R FOG
PLATTEVILLE    CLOUDY    28  27  96 NW5       29.95R WCI  22
$$

WIZ056-057-062-063-064-067-068-270900-
SOUTH CENTRAL WISCONSIN

CITY           SKY/WX    TMP DP  RH WIND       PRES   REMARKS
REEDSBURG      CLOUDY    24  23  98 CALM      29.97R FOG
BARABOO/DELLS  CLOUDY    23  22  93 CALM      29.97R FOG
LONE ROCK      CLOUDY    25  23  92 W6        29.98R FOG     WCI  18
MINERAL POINT  CLOUDY    28  27  93 NW5       29.94R FOG     WCI  23
MADISON        CLOUDY    24  22  91 N5        29.96R FOG     WCI  18
MIDDLETON      CLOUDY    26  25  96 CALM      29.96R
WATERTOWN      CLOUDY    24  24 100 CALM      29.95R FOG
MONROE         CLOUDY    27  27 100 CALM      29.93R FOG
JANESVILLE     CLOUDY    28  27  93 CALM      29.94R FOG
$$

WIZ051-052-058>065-066-070>072-270900-
SOUTHEAST WISCONSIN

CITY           SKY/WX    TMP DP  RH WIND       PRES   REMARKS
MILWAUKEE      CLOUDY    27  22  81 N3        29.96R
WAUKESHA       CLOUDY    23  23 100 CALM      29.95R FOG
MILWAUKEE/TIMM CLOUDY    27  23  86 NE3       29.97R FOG
RACINE         CLOUDY    26  23  88 N3        29.97R FOG
BURLINGTON     CLOUDY    22  21  98 CALM      29.95R FOG
KENOSHA        CLOUDY    26  24  92 CALM      29.95R
FOND DU LAC    CLOUDY    24  20  84 N3        29.97R
SHEBOYGAN      CLOUDY    26  20  77 E5        29.98R WCI  20
WEST BEND      CLOUDY    25  23  93 CALM      29.96R FOG
JUNEAU         CLOUDY    23  22  95 CALM      29.96R FOG
$$

LSZ147-162-270900-
LAKE SUPERIOR

STATION/POSITION TIME  TEMP    WIND        PRES    WAVE
                       AIR SEA DIR/SP/G            HT/PER
                 (UTC) (F)     (DEG/KT/KT) (MB)    (FT/S)
DEVILS ISLAND    0800   28     350/  9/ 11 1018.0R
PORT WING        0740   29     360/ 12/ 13 1017.3R
SAXON HARBOR     0700   25     150/  1/  3 1015.9R
$$

LMZ867-665-643>646-270900-
LAKE MICHIGAN

STATION/POSITION TIME  TEMP    WIND        PRES    WAVE
                       AIR SEA DIR/SP/G            HT/PER
                 (UTC) (F)     (DEG/KT/KT) (MB)    (FT/S)
NORTHPORT PIER   0723   23     110/  9/ 11 1017.3R
SISTER BAY       0713   22        CALM       N/A
KEWAUNEE LAKESHO 0700   25     140/  9/ 12 1015.1R
SHEBOYGAN LAKESH 0800   26      90/ 17/ 18 1016.7R
PORT WASHINGTON  0740   29     120/ 12/ 15 1015.6R
KENOSHA   LAKESH 0800   27     330/  3/  4 1014.6R
$$

TC  - TEMPERATURE IN CELSIUS
VSB - VISIBILITY IN STATUTE MILES
WCI - WIND CHILL INDEX
HX  - HEAT INDEX



USA.gov is the U.S. government's official web portal to all federal, state and local government web resources and services.